Englewood, Florida, United States (34223)
Lat: 26.96N, Lon: 82.35W
Wx Zone: FLZ060
Local Info
Past Weather Observations for Monday, July 28, 2014

NOTE: This archive is for the closest National Weather Service station to Englewood. Information may differ from the station used for current weather conditions.

Click here for Long-term Archive

Time Weather Temperature Dewpoint Humidity Pressure Winds Precip Visibility
23:53
Clear
82°F / 28°C 75°F / 24°C 79% 30.04 in
(1017 mb)
W 4.6 mph
(W 7 kph)
- 10SM
22:53
Clear
84°F / 29°C 75°F / 24°C 74% 30.04 in
(1017 mb)
SSW 6.9 mph
(SSW 11 kph)
- 10SM
21:53
Clear
84°F / 29°C 75°F / 24°C 74% 30.06 in
(1018 mb)
W 4.6 mph
(W 7 kph)
- 10SM
20:53
Clear
84°F / 29°C 75°F / 24°C 74% 30.04 in
(1017 mb)
SSW 5.8 mph
(SSW 9 kph)
- 10SM
19:53
Clear
86°F / 30°C 75°F / 24°C 70% 30.04 in
(1017 mb)
W 5.8 mph
(W 9 kph)
- 10SM
18:53
Clear
88°F / 31°C 73°F / 23°C 62% 30.04 in
(1017 mb)
SSW 9.2 mph
(SSW 15 kph)
- 10SM
17:53
Clear
90°F / 32°C 73°F / 23°C 59% 30.04 in
(1017 mb)
W 10.4 mph
(W 17 kph)
- 10SM
16:53
Partly Cloudy
91°F / 33°C 72°F / 22°C 52% 30.04 in
(1017 mb)
W 11.5 mph
(W 19 kph)
- 10SM
15:53
Partly Cloudy
93°F / 34°C 72°F / 22°C 49% 30.04 in
(1017 mb)
W 13.8 mph
(W 22 kph)
- 10SM
14:53
Partly Cloudy
93°F / 34°C 73°F / 23°C 53% 30.06 in
(1018 mb)
SSW 15 mph
(SSW 24 kph)
- 10SM
13:53
Partly Cloudy
91°F / 33°C 72°F / 22°C 52% 30.06 in
(1018 mb)
SSW 16.1 mph
(SSW 26 kph)
- 10SM
12:53
Partly Cloudy
93°F / 34°C 72°F / 22°C 49% 30.09 in
(1019 mb)
WNW 10.4 mph
(WNW 17 kph)
- 10SM
11:53
Mostly Cloudy
91°F / 33°C 72°F / 22°C 52% 30.09 in
(1019 mb)
SSW 12.7 mph
(SSW 20 kph)
- 10SM
10:53
Partly Cloudy
91°F / 33°C 75°F / 24°C 59% 30.09 in
(1019 mb)
W 10.4 mph
(W 17 kph)
- 10SM
09:53
Partly Cloudy
91°F / 33°C 75°F / 24°C 59% 30.09 in
(1019 mb)
NW 9.2 mph
(NW 15 kph)
- 10SM
08:53
Partly Cloudy
88°F / 31°C 75°F / 24°C 66% 30.09 in
(1019 mb)
NW 8.1 mph
(NW 13 kph)
- 10SM
07:53
Partly Cloudy
84°F / 29°C 79°F / 26°C 84% 30.09 in
(1019 mb)
Calm - 10SM
06:53
Clear
82°F / 28°C 79°F / 26°C 89% 30.09 in
(1019 mb)
Calm - 10SM
05:53
Clear
79°F / 26°C 75°F / 24°C 89% 30.09 in
(1019 mb)
Calm - 10SM
04:53
Partly Cloudy
77°F / 25°C 75°F / 24°C 94% 30.06 in
(1018 mb)
Calm - 10SM
03:53
Clear
79°F / 26°C 75°F / 24°C 89% 30.06 in
(1018 mb)
Calm - 10SM
02:53
Clear
79°F / 26°C 75°F / 24°C 89% 30.06 in
(1018 mb)
S 5.8 mph
(S 9 kph)
- 10SM
01:53
Clear
81°F / 27°C 77°F / 25°C 89% 30.06 in
(1018 mb)
Calm - 10SM
00:53
Clear
81°F / 27°C 75°F / 24°C 84% 30.09 in
(1019 mb)
Calm - 10SM
Time Weather Temperature Dewpoint Humidity Pressure Winds Precip Visibility


Weather for websites

WeatherForYou.com, LLC is not responsible for any damages or problems caused by this service. Current weather conditions are obtained from the closest station including government and personal stations which may have varying degrees of accuracy. Weather forecasts are derived from the NOAA NDFD. Like all things, this site belongs to Jesus Christ... He just trusts me to maintain it. If you have any questions or comments email webmaster@weatherforyou.com

Copyright © 2014, WeatherForYou.com LLC. All rights reserved.